1505905200.46,65245,15.31,73410.5,1.51,-0.29,-0.23,0,*72
1505905201.68,65246,15.25,73410.0,1.51,-0.41,-0.33,0,*7E
1505905202.89,65247,15.31,73410.0,1.51,-0.53,-0.45,0,*7D
1505905204.1,65248,15.25,73408.3,1.51,-0.53,-0.45,0,*72
1505905205.31,65249,15.31,73410.5,1.51,-0.53,-0.41,0,*77
1505905206.52,65250,15.31,73410.0,1.51,-0.57,-0.45,0,*7F
1505905207.73,65251,15.31,73408.0,1.51,-0.77,-0.81,0,*74
1505905208.96,65252,15.31,73410.8,1.49,-0.97,-0.89,0,*78
1505905210.14,65253,15.31,73408.0,1.49,-0.69,-0.61,0,*7E
1505905211.32,65254,15.31,73410.0,1.49,-0.69,-0.61,0,*79
1505905212.54,65255,15.31,73410.0,1.51,-0.45,-0.41,0,*7D
1505905213.72,65256,15.31,73410.5,1.49,-0.37,-0.33,0,*77
1505905214.9,65257,15.31,73408.3,1.49,-0.49,-0.45,0,*7E
1505905216.07,65258,15.31,73408.5,1.49,-0.61,-0.61,0,*7D
1505905217.28,65259,15.31,73414.5,1.51,-0.45,-0.29,0,*7F
1505905218.49,65260,15.31,73412.5,1.51,-0.45,-0.41,0,*7B
1505905219.68,65261,15.31,73410.8,1.49,-0.57,-0.49,0,*78
1505905220.86,65262,15.31,73408.5,1.49,-0.61,-0.57,0,*71
1505905222.03,65263,15.31,73412.5,1.49,-0.61,-0.57,0,*70
1505905223.25,65264,15.31,73412.0,1.51,-0.45,-0.41,0,*7F
1505905224.43,65265,15.31,73408.0,1.49,-0.37,-0.33,0,*77
1505905225.64,65266,15.31,73410.8,1.49,-0.37,-0.27,0,*71
1505905226.82,65267,15.25,73408.3,1.49,-0.29,-0.19,0,*72
1505905228.02,65268,15.31,73410.0,1.49,-0.33,-0.23,0,*7F
1505905229.23,65269,15.25,73408.8,1.51,-0.29,-0.19,0,*75
1505905230.43,65270,15.25,73408.5,1.49,-0.33,-0.23,0,*76
1505905231.67,65271,15.31,73412.3,1.51,-0.23,-0.19,0,*76
1505905232.89,65272,15.31,73414.3,1.51,-0.33,-0.23,0,*7D
1505905234.13,65273,15.31,73412.3,1.51,-0.23,-0.19,0,*74
1505905235.35,65274,15.31,73408.8,1.51,-0.19,-0.11,0,*72
1505905236.58,65275,15.31,73410.8,1.51,-0.23,-0.11,0,*7A
1505905237.79,65276,15.31,73414.0,1.51,-0.33,-0.33,0,*78
1505905239.0,65277,15.31,73414.3,1.51,-0.41,-0.29,0,*77
1505905240.21,65278,15.31,73412.8,1.51,-0.57,-0.57,0,*76
1505905241.43,65279,15.31,73410.0,1.51,-0.45,-0.41,0,*73
1505905242.61,65280,15.31,73412.3,1.49,-0.37,-0.33,0,*7C
1505905243.84,65281,15.31,73414.0,1.51,-0.33,-0.23,0,*71
1505905245.06,65282,15.31,73410.0,1.51,-0.41,-0.33,0,*76
1505905246.24,65283,15.31,73410.5,1.49,-0.57,-0.49,0,*74
1505905247.46,65284,15.31,73410.8,1.51,-0.57,-0.41,0,*72
1505905248.69,65285,15.25,73410.8,1.51,-0.33,-0.23,0,*75
1505905249.9,65286,15.31,73414.3,1.51,-0.33,-0.33,0,*77
1505905251.11,65287,15.31,73412.0,1.51,-0.41,-0.33,0,*73
1505905252.3,65288,15.31,73410.0,1.49,-0.45,-0.33,0,*71
1505905253.5,65289,15.25,73408.3,1.51,-0.29,-0.29,0,*78
1505905254.68,65290,15.31,73412.5,1.49,-0.45,-0.45,0,*79
1505905255.86,65291,15.25,73410.5,1.49,-0.45,-0.37,0,*7D
1505905257.08,65292,15.31,73412.3,1.51,-0.41,-0.33,0,*77
1505905258.29,65293,15.31,73408.5,1.51,-0.53,-0.45,0,*74
1505905259.49,65294,15.31,73414.0,1.51,-0.45,-0.29,0,*7E
1505905260.7,65295,15.31,73410.0,1.51,-0.33,-0.29,0,*7E
1505905261.88,65296,15.25,73408.8,1.49,-0.49,-0.37,0,*76
1505905263.07,65297,15.31,73408.5,1.49,-0.37,-0.33,0,*7A
1505905264.29,65298,15.31,73408.3,1.51,-0.33,-0.23,0,*79
1505905265.48,65299,15.25,73408.8,1.49,-0.49,-0.49,0,*70
1505905266.69,65300,15.25,73410.5,1.51,-0.41,-0.33,0,*7D
1505905267.87,65301,15.25,73408.8,1.49,-0.33,-0.45,0,*71
1505905269.1,65302,15.31,73410.5,1.49,-0.27,-0.23,0,*77
1505905270.3,65303,15.31,73410.5,1.51,-0.33,-0.29,0,*70
1505905271.52,65304,15.25,73410.3,1.51,-0.41,-0.41,0,*7C
1505905272.72,65305,15.31,73414.3,1.51,-0.29,-0.29,0,*7D
1505905273.91,65306,15.25,73408.8,1.49,-0.45,-0.37,0,*72
1505905275.12,65307,15.31,73414.3,1.51,-0.33,-0.33,0,*7F
1505905276.33,65308,15.31,73408.5,1.51,-0.33,-0.33,0,*70
1505905277.54,65309,15.31,73410.3,1.51,-0.57,-0.49,0,*7E
1505905278.74,65310,15.31,73408.5,1.51,-0.65,-0.65,0,*79
1505905279.92,65311,15.31,73410.5,1.49,-0.69,-0.61,0,*79
1505905281.1,65312,15.31,73410.0,1.49,-0.69,-0.61,0,*7A
1505905282.27,65313,15.31,73410.3,1.49,-0.61,-0.61,0,*73
1505905283.48,65314,15.31,73410.0,1.51,-0.65,-0.57,0,*7C
1505905284.69,65315,15.31,73410.5,1.51,-0.57,-0.57,0,*7C
1505905285.88,65316,15.31,73410.0,1.49,-0.57,-0.57,0,*76
1505905287.06,65317,15.31,73408.3,1.49,-0.57,-0.49,0,*78
1505905288.25,65318,15.31,73408.5,1.49,-0.37,-0.37,0,*78
1505905289.46,65319,15.31,73408.3,1.51,-0.33,-0.33,0,*70
1505905290.67,65320,15.31,73410.5,1.51,-0.41,-0.33,0,*7F
1505905291.86,65321,15.31,73410.5,1.49,-0.45,-0.37,0,*77
1505905293.04,65322,15.25,73408.0,1.49,-0.37,-0.33,0,*75
1505905294.27,65323,15.31,73412.3,1.49,-0.27,-0.27,0,*70
1505905295.49,65324,15.31,73408.5,1.51,-0.41,-0.33,0,*7B
1505905296.72,65325,15.31,73410.5,1.51,-0.29,-0.23,0,*75
1505905297.95,65326,15.25,73410.5,1.51,-0.23,-0.19,0,*75
1505905299.16,65327,15.25,73410.3,1.51,-0.41,-0.29,0,*73
1505905300.34,65328,15.31,73408.5,1.49,-0.45,-0.33,0,*7A
1505905301.55,65329,15.31,73410.5,1.51,-0.53,-0.33,0,*75
1505905302.77,65330,15.31,73412.0,1.51,-0.53,-0.33,0,*7D
1505905303.98,65331,15.31,73414.0,1.51,-0.41,-0.29,0,*74
1505905305.19,65332,15.31,73412.8,1.51,-0.41,-0.33,0,*7C
1505905306.4,65333,15.31,73410.0,1.51,-0.69,-0.69,0,*78
1505905307.61,65334,15.25,73408.0,1.51,-0.81,-0.81,0,*7F
1505905308.87,65335,15.31,73412.5,1.51,-0.93,-0.85,0,*79
1505905310.1,65336,15.25,73410.0,1.51,-0.93,-0.81,0,*7E
1505905311.3,65337,15.31,73410.5,1.49,-0.89,-0.81,0,*7D
1505905312.48,65338,15.25,73410.8,1.49,-0.61,-0.57,0,*7F
1505905313.66,65339,15.31,73412.5,1.49,-0.49,-0.37,0,*72
1505905314.85,65340,15.31,73412.8,1.49,-0.73,-0.69,0,*7E
1505905316.06,65341,15.31,73412.5,1.51,-0.65,-0.57,0,*7C
1505905317.27,65342,15.25,73408.0,1.51,-0.45,-0.41,0,*7A
1505905318.47,65343,15.25,73408.8,1.51,-0.33,-0.29,0,*74
1505905319.69,65344,15.31,73410.5,1.51,-0.45,-0.33,0,*79
1505905320.87,65345,15.25,73408.3,1.49,-0.65,-0.57,0,*71
1505905322.08,65346,15.31,73412.0,1.51,-0.53,-0.45,0,*7D
1505905323.29,65347,15.31,73412.3,1.51,-0.65,-0.57,0,*7A
1505905324.5,65348,15.31,73414.8,1.51,-0.65,-0.57,0,*75
1505905325.7,65349,15.31,73412.0,1.51,-0.77,-0.69,0,*7A
1505905326.91,65350,15.31,73412.5,1.51,-0.69,-0.69,0,*7D
1505905328.12,65351,15.31,73412.0,1.51,-0.69,-0.65,0,*70
1505905329.31,65352,15.31,73412.0,1.49,-0.73,-0.73,0,*76
1505905330.57,65353,15.31,73410.0,1.51,-0.97,-0.85,0,*7D
1505905331.79,65354,15.31,73410.5,1.49,-0.85,-0.89,0,*7C
1505905333.0,65355,15.25,73410.0,1.49,-0.85,-0.81,0,*75
1505905334.27,65356,15.25,73408.8,1.51,-1.05,-0.93,0,*45
1505905335.49,65357,15.25,73408.8,1.49,-0.85,-0.85,0,*73
1505905336.68,65358,15.31,73412.3,1.49,-0.81,-0.81,0,*7C
1505905337.86,65359,15.31,73414.0,1.49,-0.73,-0.69,0,*76
1505905339.08,65360,15.25,73412.0,1.47,-0.73,-0.69,0,*72
1505905340.3,65361,15.31,73414.0,1.47,-0.73,-0.73,0,*78
1505905341.51,65362,15.31,73412.3,1.47,-0.69,-0.57,0,*76
1505905342.71,65363,15.31,73412.3,1.47,-0.61,-0.57,0,*7F
1505905343.92,65364,15.31,73412.5,1.47,-0.49,-0.37,0,*74
1505905345.13,65365,15.31,73412.3,1.47,-0.45,-0.45,0,*7C
1505905346.35,65366,15.25,73410.5,1.47,-0.57,-0.49,0,*70
1505905347.55,65367,15.31,73412.8,1.47,-0.69,-0.61,0,*76
1505905348.77,65368,15.31,73410.3,1.47,-0.73,-0.73,0,*71
1505905349.98,65369,15.31,73412.8,1.47,-0.73,-0.69,0,*7B
1505905351.17,65370,15.31,73410.5,1.49,-0.73,-0.69,0,*7D
1505905352.39,65371,15.25,73410.0,1.47,-0.81,-0.73,0,*74
1505905353.6,65372,15.25,73410.0,1.47,-0.69,-0.73,0,*71
1505905354.78,65373,15.31,73410.5,1.45,-0.61,-0.57,0,*7C
1505905355.96,65374,15.31,73412.0,1.45,-0.53,-0.57,0,*7A
1505905357.15,65375,15.31,73412.8,1.45,-0.53,-0.49,0,*74
1505905358.36,65376,15.31,73414.8,1.47,-0.45,-0.45,0,*7E
1505905359.57,65377,15.25,73410.0,1.45,-0.77,-0.85,0,*70
1505905360.8,65378,15.25,73410.3,1.45,-0.85,-0.85,0,*72
1505905361.98,65379,15.31,73414.8,1.45,-0.69,-0.61,0,*7B
1505905363.18,65380,15.25,73408.0,1.47,-0.61,-0.65,0,*73
1505905364.37,65381,15.31,73412.0,1.45,-0.65,-0.65,0,*74
1505905365.56,65382,15.31,73410.3,1.45,-0.41,-0.49,0,*7F
1505905366.74,65383,15.31,73412.8,1.45,-0.61,-0.53,0,*77
1505905367.95,65384,15.31,73408.3,1.47,-0.45,-0.37,0,*76
1505905369.16,65385,15.31,73412.5,1.47,-0.49,-0.49,0,*72
1505905370.37,65386,15.25,73408.8,1.47,-0.57,-0.57,0,*71
1505905371.55,65387,15.31,73412.3,1.45,-0.65,-0.65,0,*72
1505905372.76,65388,15.31,73412.5,1.47,-0.69,-0.61,0,*77
1505905373.95,65389,15.31,73414.3,1.45,-0.57,-0.49,0,*73
1505905375.13,65390,15.31,73414.0,1.45,-0.61,-0.49,0,*7E
1505905376.34,65391,15.31,73410.3,1.47,-0.49,-0.49,0,*77
1505905377.55,65392,15.31,73412.5,1.47,-0.57,-0.45,0,*77
1505905378.77,65393,15.31,73414.8,1.47,-0.45,-0.45,0,*75
1505905379.98,65394,15.31,73412.0,1.47,-0.45,-0.33,0,*73
1505905381.21,65395,15.25,73410.8,1.49,-0.27,-0.23,0,*79
1505905382.41,65396,15.31,73408.8,1.47,-0.49,-0.45,0,*7C
1505905383.6,65397,15.31,73414.5,1.45,-0.49,-0.37,0,*7A
1505905384.81,65398,15.31,73412.0,1.47,-0.37,-0.33,0,*7A
1505905386.04,65399,15.25,73408.8,1.47,-0.33,-0.23,0,*7E
1505905387.27,65400,15.31,73412.8,1.47,-0.33,-0.23,0,*79
1505905388.48,65401,15.31,73414.5,1.49,-0.37,-0.27,0,*76
1505905389.69,65402,15.25,73408.8,1.49,-0.27,-0.15,0,*75
1505905390.9,65403,15.31,73412.8,1.49,-0.37,-0.27,0,*74
1505905392.11,65404,15.25,73408.0,1.47,-0.45,-0.33,0,*7D
1505905393.3,65405,15.25,73408.8,1.45,-0.41,-0.29,0,*71
1505905394.53,65406,15.25,73410.3,1.47,-0.27,-0.15,0,*7F
1505905395.72,65407,15.31,73414.3,1.49,-0.33,-0.15,0,*75
1505905396.95,65408,15.31,73416.3,1.49,-0.27,-0.23,0,*7A
1505905398.13,65409,15.31,73414.5,1.49,-0.69,-0.57,0,*72
1505905399.33,65410,15.31,73414.5,1.51,-0.69,-0.65,0,*72
1505905400.54,65411,15.25,73410.5,1.49,-0.89,-0.81,0,*7E
1505905401.73,65412,15.31,73414.3,1.49,-0.81,-0.81,0,*75
1505905402.92,65413,15.25,73410.8,1.49,-0.81,-0.73,0,*79
1505905404.1,65414,15.31,73412.8,1.49,-0.73,-0.69,0,*78
1505905405.31,65415,15.25,73410.8,1.51,-0.65,-0.57,0,*7A
1505905406.5,65416,15.31,73414.8,1.49,-0.45,-0.33,0,*70
1505905407.73,65417,15.31,73412.5,1.51,-0.45,-0.23,0,*79
1505905408.91,65418,15.31,73414.5,1.49,-0.37,-0.33,0,*7B
1505905410.12,65419,15.31,73412.5,1.49,-0.37,-0.27,0,*7F
1505905411.3,65420,15.31,73412.5,1.49,-0.49,-0.37,0,*7D
1505905412.49,65421,15.31,73414.5,1.49,-0.45,-0.33,0,*74
1505905413.69,65422,15.31,73412.8,1.49,-0.33,-0.27,0,*73
1505905414.92,65423,15.31,73416.0,1.51,-0.33,-0.23,0,*7F
1505905416.12,65424,15.31,73412.0,1.51,-0.33,-0.29,0,*72
1505905417.3,65425,15.31,73414.0,1.49,-0.69,-0.61,0,*79
1505905418.51,65426,15.31,73414.0,1.51,-0.53,-0.53,0,*7B
1505905419.72,65427,15.25,73410.3,1.51,-0.41,-0.33,0,*7F
1505905420.9,65428,15.25,73408.0,1.49,-0.33,-0.33,0,*7C
1505905422.09,65429,15.31,73412.3,1.49,-0.45,-0.37,0,*78
1505905423.27,65430,15.31,73412.8,1.49,-0.33,-0.33,0,*75
1505905424.49,65431,15.25,73412.8,1.51,-0.41,-0.33,0,*78
1505905425.69,65432,15.25,73412.5,1.51,-0.45,-0.29,0,*74
1505905426.91,65433,15.31,73412.0,1.51,-0.45,-0.41,0,*7B
1505905428.09,65434,15.31,73412.0,1.49,-0.61,-0.49,0,*7B
1505905429.3,65435,15.31,73414.3,1.51,-0.53,-0.41,0,*7A
1505905430.51,65436,15.25,73412.3,1.51,-0.33,-0.33,0,*7A
1505905431.72,65437,15.31,73418.0,1.51,-0.45,-0.33,0,*7A
1505905432.94,65438,15.31,73414.5,1.51,-0.41,-0.41,0,*74
1505905434.15,65439,15.25,73410.8,1.51,-0.65,-0.57,0,*74
1505905435.37,65440,15.31,73412.0,1.51,-0.45,-0.41,0,*7F
1505905436.55,65441,15.31,73414.3,1.53,-0.65,-0.53,0,*7D
1505905437.74,65442,15.25,73414.5,1.53,-0.53,-0.49,0,*70
1505905438.92,65443,15.25,73412.3,1.53,-0.53,-0.53,0,*7A
1505905440.13,65444,15.31,73414.5,1.51,-0.53,-0.41,0,*7C
1505905441.33,65445,15.25,73408.3,1.51,-0.33,-0.29,0,*75
1505905442.56,65446,15.25,73412.0,1.51,-0.33,-0.23,0,*7C
1505905443.78,65447,15.25,73412.8,1.51,-0.45,-0.33,0,*7D
1505905444.99,65448,15.31,73414.3,1.51,-0.41,-0.41,0,*73
1505905446.23,65449,15.31,73414.0,1.53,-0.27,-0.27,0,*70
1505905447.43,65450,15.31,73412.5,1.51,-0.33,-0.33,0,*7A
1505905448.66,65451,15.31,73414.3,1.51,-0.29,-0.23,0,*71
1505905449.92,65452,15.25,73412.5,1.51,-0.23,-0.23,0,*78
1505905451.13,65453,15.31,73412.0,1.51,-0.53,-0.45,0,*7E
1505905452.32,65454,15.31,73414.0,1.53,-0.41,-0.37,0,*7D
1505905453.5,65455,15.25,73408.5,1.53,-0.53,-0.37,0,*7F
1505905454.69,65456,15.25,73408.8,1.53,-0.41,-0.37,0,*7F
1505905455.88,65457,15.25,73408.8,1.53,-0.53,-0.37,0,*7D
1505905457.07,65458,15.25,73412.0,1.53,-0.41,-0.41,0,*70
1505905458.25,65459,15.25,73410.0,1.53,-0.61,-0.53,0,*70
1505905459.43,65460,15.25,73412.8,1.53,-0.65,-0.65,0,*7B
1505905460.6,65461,15.25,73412.5,1.53,-0.61,-0.53,0,*7B
1505905461.78,65462,15.25,73412.3,1.53,-0.65,-0.53,0,*7C
1505905462.99,65463,15.31,73412.8,1.51,-0.45,-0.45,0,*7A
1505905464.2,65464,15.25,73414.3,1.51,-0.29,-0.19,0,*7E
1505905465.41,65465,15.25,73410.8,1.55,-0.29,-0.19,0,*7B
1505905466.59,65466,15.25,73410.5,1.53,-0.29,-0.19,0,*7E
1505905467.79,65467,15.25,73414.5,1.53,-0.29,-0.27,0,*72
1505905468.98,65468,15.25,73412.0,1.53,-0.53,-0.49,0,*78
1505905470.19,65469,15.25,73410.8,1.55,-0.37,-0.29,0,*7B
1505905471.37,65470,15.25,73410.3,1.53,-0.41,-0.37,0,*7B
1505905472.58,65471,15.31,73412.3,1.55,-0.37,-0.29,0,*72
1505905473.76,65472,15.31,73414.3,1.53,-0.29,-0.29,0,*78
1505905474.96,65473,15.25,73412.8,1.55,-0.29,-0.29,0,*7F
1505905476.19,65474,15.25,73414.0,1.55,-0.27,-0.19,0,*75
1505905477.41,65475,15.25,73414.0,1.55,-0.41,-0.37,0,*78
1505905478.61,65476,15.31,73412.8,1.53,-0.29,-0.27,0,*72
1505905479.83,65477,15.25,73410.8,1.55,-0.37,-0.37,0,*7B
1505905481.04,65478,15.31,73412.8,1.55,-0.53,-0.53,0,*74
1505905482.25,65479,15.25,73412.3,1.55,-0.53,-0.49,0,*7E
1505905483.47,65480,15.31,73412.3,1.55,-0.41,-0.41,0,*73
1505905484.7,65481,15.25,73410.3,1.55,-0.37,-0.27,0,*73
1505905485.91,65482,15.25,73412.3,1.55,-0.53,-0.53,0,*71
1505905487.09,65483,15.31,73412.3,1.57,-0.45,-0.33,0,*73
1505905488.3,65484,15.31,73416.0,1.55,-0.37,-0.29,0,*78
1505905489.48,65485,15.25,73414.0,1.57,-0.49,-0.45,0,*78
1505905490.68,65486,15.25,73410.5,1.59,-0.49,-0.45,0,*75
1505905491.88,65487,15.31,73414.8,1.55,-0.61,-0.53,0,*75
1505905493.12,65488,15.25,73414.0,1.55,-0.37,-0.27,0,*7A
1505905494.32,65489,15.25,73412.3,1.55,-0.37,-0.29,0,*75
1505905495.54,65490,15.25,73412.5,1.55,-0.53,-0.41,0,*71
1505905496.77,65491,15.25,73412.8,1.55,-0.37,-0.27,0,*72
1505905498.01,65492,15.31,73416.0,1.55,-0.37,-0.27,0,*71
1505905499.24,65493,15.25,73410.5,1.55,-0.37,-0.27,0,*70
1505905500.45,65494,15.31,73412.3,1.55,-0.37,-0.19,0,*7A
1505905501.65,65495,15.31,73414.0,1.57,-0.33,-0.23,0,*74
1505905502.83,65496,15.25,73412.3,1.57,-0.45,-0.37,0,*73
1505905504.01,65497,15.25,73410.8,1.57,-0.49,-0.49,0,*77
1505905505.19,65498,15.25,73414.0,1.57,-0.33,-0.33,0,*78
1505905506.37,65499,15.31,73414.5,1.57,-0.33,-0.33,0,*79
1505905507.57,65500,15.25,73408.5,1.57,-0.37,-0.23,0,*7D
1505905508.8,65501,15.25,73410.8,1.59,-0.33,-0.23,0,*76
1505905510.01,65502,15.31,73412.8,1.59,-0.37,-0.33,0,*70
1505905511.25,65503,15.25,73412.3,1.59,-0.45,-0.27,0,*71
1505905512.46,65504,15.25,73414.8,1.59,-0.15,-0.15,0,*72
1505905513.66,65505,15.31,73414.8,1.57,-0.33,-0.23,0,*7C
1505905514.84,65506,15.31,73412.5,1.61,-0.29,-0.19,0,*78
1505905516.02,65507,15.31,73412.3,1.61,-0.33,-0.33,0,*7A
1505905517.25,65508,15.25,73410.5,1.59,-0.45,-0.27,0,*7A
1505905518.43,65509,15.31,73414.5,1.61,-0.33,-0.33,0,*74
1505905519.66,65510,15.25,73410.3,1.65,-0.27,-0.27,0,*78
1505905520.84,65511,15.31,73412.3,1.61,-0.69,-0.65,0,*71
1505905522.01,65512,15.31,73412.8,1.65,-0.69,-0.61,0,*72
1505905523.2,65513,15.25,73412.8,1.61,-0.45,-0.41,0,*7B
1505905524.38,65514,15.31,73412.0,1.65,-0.53,-0.41,0,*7F
1505905525.59,65515,15.25,73414.8,1.59,-0.45,-0.33,0,*73
1505905526.77,65516,15.25,73414.8,1.61,-0.41,-0.29,0,*74
1505905527.98,65517,15.31,73412.5,1.61,-0.23,-0.19,0,*72
1505905529.19,65518,15.25,73414.3,1.65,-0.27,-0.15,0,*71
1505905530.39,65519,15.25,73408.5,1.65,-0.37,-0.27,0,*70
1505905531.56,65520,15.25,73410.0,1.65,-0.37,-0.29,0,*74
1505905532.76,65521,15.25,73408.0,1.65,-0.37,-0.27,0,*7B
1505905533.95,65522,15.25,73412.8,1.65,-0.29,-0.27,0,*77
1505905535.14,65523,15.25,73410.8,1.61,-0.33,-0.33,0,*7C
1505905536.36,65524,15.31,73412.5,1.65,-0.27,-0.27,0,*7F
1505905537.55,65525,15.25,73410.3,1.65,-0.27,-0.29,0,*70
1505905538.73,65526,15.25,73410.8,1.61,-0.29,-0.29,0,*79
1505905539.91,65527,15.25,73410.8,1.65,-0.19,-0.19,0,*7C
1505905541.11,65528,15.25,73410.8,1.65,-0.29,-0.27,0,*7D
1505905542.33,65529,15.25,73412.5,1.61,-0.23,-0.23,0,*76
1505905543.52,65530,15.25,73414.8,1.65,-0.19,-0.19,0,*7A
1505905544.76,65531,15.25,73410.8,1.61,-2.07,-1.91,0,*73
1505905545.95,65532,15.25,73408.8,1.61,-1.21,-1.17,0,*79
1505905547.12,65533,15.25,73412.3,1.65,-0.61,-0.69,0,*71
1505905548.31,65534,15.25,73410.5,1.61,-0.69,-0.73,0,*71
1505905549.5,65535,15.25,73414.8,1.61,-0.73,-0.73,0,*7B
1505905550.65,0,15.25,73412.0,1.61,-0.65,-0.65,0,*7B
1505905551.81,1,15.31,73412.3,1.61,-0.57,-0.53,0,*7E
1505905552.99,2,15.25,73412.3,1.61,-0.23,-0.29,0,*73
1505905554.18,3,15.31,73412.3,1.61,-0.23,-0.19,0,*71
1505905555.33,4,15.25,73410.8,1.65,-0.45,-0.45,0,*7B
1505905556.5,5,15.25,73412.8,1.61,-0.45,-0.41,0,*7A
1505905557.66,6,15.31,73412.0,1.61,-0.57,-0.53,0,*79
1505905558.81,7,15.31,73414.3,1.61,-0.29,-0.29,0,*7C
1505905559.97,8,15.25,73408.0,1.61,-0.11,-0.19,0,*7B
1505905561.14,9,15.31,73414.0,1.61,-0.45,-0.45,0,*72
1505905562.3,10,15.25,73410.5,1.65,-0.15,-0.15,0,*4E
1505905563.46,11,15.25,73410.5,1.65,-0.19,-0.19,0,*4F
1505905564.62,12,15.25,73412.5,1.65,-0.15,-0.15,0,*4C
1505905565.78,13,15.25,73408.5,1.65,-0.29,-0.29,0,*4D
1505905566.92,14,15.25,73412.0,1.65,-0.61,-0.61,0,*4A
1505905568.07,15,15.31,73412.3,1.65,-0.61,-0.61,0,*4B
1505905569.22,16,15.25,73408.8,1.65,-0.61,-0.61,0,*48
1505905570.38,17,15.31,73414.0,1.65,-0.49,-0.41,0,*41
1505905571.56,18,15.25,73412.0,1.65,-0.29,-0.27,0,*48
1505905572.72,19,15.25,73412.8,1.65,-0.19,-0.19,0,*47
1505905573.87,20,15.25,73410.5,1.65,-0.03,0.05,0,*66
1505905575.01,21,15.31,73414.0,1.69,0.01,0.09,0,*48
1505905576.17,22,15.25,73412.3,1.69,-0.15,-0.03,0,*74
1505905577.36,23,15.25,73410.8,1.69,-0.27,-0.15,0,*43
1505905578.59,24,15.25,73412.0,1.67,-0.27,-0.27,0,*4B
1505905579.79,25,15.25,73408.3,1.69,-0.23,-0.11,0,*45
1505905580.96,26,15.31,73412.8,1.69,-0.11,-0.11,0,*47
1505905582.13,27,15.31,73412.0,1.67,-0.03,-0.03,0,*48
1505905583.31,28,15.25,73410.3,1.71,-0.03,-0.03,0,*40
1505905584.5,29,15.25,73408.0,1.73,-0.11,-0.07,0,*74
1505905585.69,30,15.31,73414.3,1.71,-0.37,-0.37,0,*49
1505905586.89,31,15.25,73408.5,1.71,-0.15,-0.11,0,*4C
1505905588.08,32,15.31,73412.8,1.71,-0.11,-0.03,0,*78
1505905589.26,33,15.31,73412.5,1.71,-0.11,0.01,0,*56
1505905590.45,34,15.25,73410.8,1.71,-0.15,-0.11,0,*49
1505905591.63,35,15.25,73408.3,1.73,-0.29,-0.29,0,*4E
1505905592.83,36,15.25,73412.0,1.73,-0.19,-0.11,0,*45
1505905594.01,37,15.31,73410.3,1.73,-0.19,-0.07,0,*73
1505905595.25,38,15.25,73406.5,1.73,-0.23,-0.23,0,*43
1505905596.43,39,15.25,73408.5,1.73,-0.07,-0.11,0,*75
1505905597.6,40,15.25,73408.8,1.73,-0.07,0.01,0,*67
1505905598.79,41,15.31,73412.8,1.73,-0.11,-0.07,0,*7A
1505905599.96,42,15.31,73412.5,1.75,-0.07,-0.11,0,*7F
1505905601.11,43,15.31,73412.8,1.75,-0.07,0.05,0,*66
1505905602.25,44,15.25,73408.3,1.75,0.01,0.01,0,*4E
1505905603.43,45,15.25,73408.5,1.77,0.09,0.09,0,*4D
1505905604.66,46,15.31,73412.0,1.77,0.17,0.21,0,*4B
1505905605.84,47,15.31,73412.3,1.77,0.05,0.09,0,*43
1505905607.02,48,15.31,73410.5,1.77,-0.07,0.05,0,*6F
1505905608.19,49,15.25,73410.8,1.77,0.09,0.09,0,*41
1505905609.39,50,15.25,73410.5,1.77,0.05,0.17,0,*7A
1505905610.55,51,15.25,73410.3,1.79,-0.03,-0.03,0,*46
1505905611.72,52,15.25,73410.0,1.79,-0.19,-0.07,0,*7A
1505905612.88,53,15.31,73412.0,1.79,-0.03,-0.03,0,*44
1505905614.07,54,15.25,73410.5,1.81,0.09,0.13,0,*7F
1505905615.23,55,15.31,73410.5,1.79,-0.03,0.09,0,*65
1505905616.42,56,15.25,73408.0,1.81,0.09,0.13,0,*7D
1505905617.58,57,15.25,73410.5,1.81,0.01,0.01,0,*47
1505905618.78,58,15.25,73408.3,1.81,-0.15,-0.15,0,*48
1505905620.01,59,15.31,73414.3,1.81,-0.27,-0.23,0,*4D
1505905621.19,60,15.25,73410.5,1.81,-0.11,0.01,0,*5F
1505905622.38,61,15.31,73410.5,1.81,-0.15,-0.11,0,*46
1505905623.55,62,15.25,73410.3,1.81,-0.03,0.01,0,*6E
1505905624.71,63,15.25,73408.0,1.79,-0.07,-0.07,0,*47
1505905625.9,64,15.25,73410.3,1.81,-0.15,-0.15,0,*47
1505905627.07,65,15.31,73410.3,1.81,0.01,0.09,0,*4E
1505905628.23,66,15.25,73410.3,1.81,0.01,0.01,0,*45
1505905629.42,67,15.25,73408.3,1.81,-0.03,-0.11,0,*77
1505905630.61,68,15.25,73408.3,1.81,-0.37,-0.37,0,*4B
1505905631.77,69,15.31,73410.5,1.83,-0.41,-0.29,0,*46
1505905633.0,70,15.25,73408.0,1.81,-0.23,-0.23,0,*42
1505905634.17,71,15.25,73406.8,1.83,-0.11,-0.19,0,*49
1505905635.33,72,15.25,73410.0,1.83,-0.11,-0.07,0,*75
1505905636.5,73,15.25,73410.8,1.83,-0.29,-0.19,0,*40
1505905637.65,74,15.25,73408.8,1.83,-0.07,-0.07,0,*44
1505905638.83,75,15.31,73410.8,1.85,-0.07,0.05,0,*6C
1505905640.0,76,15.31,73412.3,1.83,-1.55,-0.73,0,*73
1505905641.2,77,15.25,73410.5,1.83,-0.23,0.75,0,*69
1505905642.38,78,15.25,73408.0,1.81,0.09,1.05,0,*47
1505905643.58,79,15.25,73408.0,1.83,-0.23,0.79,0,*6B
1505905644.78,80,15.25,73408.8,1.85,-0.33,0.55,0,*64
1505905645.97,81,15.25,73406.0,1.83,-0.33,0.55,0,*63
1505905647.15,82,15.25,73410.8,1.83,-0.29,0.75,0,*69
1505905648.33,83,15.25,73410.8,1.83,-0.33,0.75,0,*63
1505905649.5,84,15.25,73408.0,1.83,-0.33,0.63,0,*63
1505905650.71,85,15.25,73410.8,1.83,-0.23,0.87,0,*69
1505905651.92,86,15.25,73410.0,1.83,-0.23,0.79,0,*6B
1505905653.09,87,15.25,73408.0,1.83,-0.33,0.67,0,*64
1505905654.27,88,15.25,73408.0,1.83,-0.41,0.63,0,*6A
1505905655.48,89,15.25,73410.5,1.85,-0.45,0.55,0,*6C
1505905656.67,90,15.25,73404.5,1.83,-0.11,0.87,0,*6C
1505905657.88,91,15.25,73410.0,1.81,-0.11,0.83,0,*6B
1505905659.03,92,15.25,73406.0,1.83,0.05,1.01,0,*49
1505905660.17,93,15.25,73408.3,1.83,-0.07,0.97,0,*59
1505905661.36,94,15.25,73408.0,1.83,-0.11,0.91,0,*6F
1505905662.51,95,15.25,73408.5,1.83,0.01,1.01,0,*4A
1505905663.68,96,15.25,73408.5,1.85,0.05,1.01,0,*4B
1505905664.89,97,15.25,73408.3,1.85,-0.11,0.91,0,*6A
1505905666.04,98,15.25,73406.0,1.83,-0.07,0.97,0,*52
1505905667.22,99,15.25,73408.8,1.83,-0.07,0.91,0,*55
1505905668.38,100,15.25,73410.3,1.83,-0.07,1.01,0,*5C
1505905669.6,101,15.25,73410.5,1.85,-0.19,0.91,0,*5C
1505905670.81,102,15.25,73408.5,1.85,-0.29,0.87,0,*5B
1505905672.01,103,15.31,73410.8,1.85,-0.29,0.79,0,*5B
1505905673.2,104,15.31,73408.8,1.85,-0.11,0.97,0,*57
1505905674.42,105,15.31,73410.5,1.85,-0.11,0.91,0,*50
1505905675.63,106,15.25,73410.8,1.85,-0.29,0.91,0,*58
1505905676.86,107,15.25,73406.5,1.85,-0.23,0.79,0,*55
1505905678.04,108,15.25,73408.8,1.83,0.01,1.09,0,*77
1505905679.21,109,15.25,73410.0,1.85,0.01,1.01,0,*78
1505905680.43,110,15.25,73410.8,1.85,-0.11,0.91,0,*54
1505905681.58,111,15.25,73406.5,1.83,-0.07,0.97,0,*62
1505905682.8,112,15.25,73408.0,1.85,-0.19,0.87,0,*59
1505905684.01,113,15.25,73408.0,1.85,-0.33,0.75,0,*5D
1505905685.22,114,15.25,73406.0,1.85,-0.19,0.91,0,*58
1505905686.43,115,15.25,73408.8,1.85,-0.07,1.09,0,*56
1505905687.65,116,15.25,73406.3,1.89,-0.15,0.91,0,*5A
1505905688.86,117,15.25,73408.0,1.85,-0.29,0.87,0,*5F
1505905690.04,118,15.25,73408.3,1.85,-0.19,0.97,0,*52
1505905691.23,119,15.31,73410.3,1.89,-0.15,1.01,0,*6D
1505905692.47,120,15.25,73408.5,1.89,-0.27,0.83,0,*5D
1505905693.63,121,15.25,73410.8,1.91,-0.15,1.01,0,*6F
1505905694.84,122,15.25,73408.5,1.89,-0.29,0.91,0,*52
1505905696.06,123,15.25,73406.0,1.89,-0.41,0.59,0,*59
1505905697.28,124,15.25,73408.0,1.89,-0.19,0.91,0,*57
1505905698.49,125,15.25,73408.8,1.85,-0.45,0.63,0,*5E
1505905699.7,126,15.25,73408.5,1.85,-0.41,0.63,0,*59
1505905700.87,127,15.31,73410.3,1.91,-0.19,1.01,0,*65
1505905702.08,128,15.25,73408.5,1.89,-0.15,0.95,0,*53
1505905703.27,129,15.31,73410.5,1.91,-0.03,1.13,0,*53
1505905704.47,130,15.25,73408.0,1.89,-0.19,0.95,0,*56
1505905705.66,131,15.25,73408.0,1.89,-0.15,1.05,0,*63
1505905706.88,132,15.31,73410.3,1.91,-0.27,0.83,0,*57
1505905708.06,133,15.25,73408.0,1.91,-0.19,0.95,0,*5C
1505905709.25,134,15.25,73410.8,1.91,0.09,1.17,0,*7C
1505905710.43,135,15.25,73410.0,1.89,-0.07,1.05,0,*54
1505905711.62,136,15.25,73408.0,1.91,-0.03,1.13,0,*5D
1505905712.8,137,15.31,73408.5,1.91,0.05,1.13,0,*77
1505905713.97,138,15.25,73408.8,1.91,-0.03,1.05,0,*54